Home   Weather   Tønsberg   Past weeks
Flag for Norway

Past Weather in Tønsberg, Norway — Yesterday and Last 2 Weeks

Now
48 °F

Fog.


Feels Like: 42 °F
Forecast: 64 / 47 °F
Wind: 16 mph from South

Location: Oseberg

Current Time: Sep 20, 2019 at 10:41:02 pm

Latest Report: Sep 20, 2019 at 9:50 pm


Visibility: 0 mi

Pressure: 30.21 "Hg

Humidity: 100%

Dew Point: 48 °F

Location of TønsbergLocation

Past Weather in Tønsberg — Graph

°F

Tønsberg Temperature Yesterday

Maximum temperature yesterday: 52 °F (at 6:20 pm)
Minimum temperature yesterday: 45 °F (at 1:50 pm)
Average temperature yesterday: 49 °F

High & Low Weather Summary for the Past Weeks

 TemperatureHumidityPressure
High57 °F (Sep 6, 4:50 pm)100% (Sep 6, 1:50 am)30.36 "Hg (Sep 6, 1:50 am)
Low45 °F (Sep 17, 5:20 am)54% (Sep 18, 10:50 pm)29.42 "Hg (Sep 11, 7:50 am)
Average52 °F80%29.96 "Hg
* Reported Sep 5 8:50 pm — Sep 20 8:50 pm, Tønsberg. Weather by CustomWeather, © 2019

Note: Actual official high and low records may vary slightly from our data, if they occured in-between our weather recording intervals... More about our weather records

Advertising

Tønsberg Weather History for the Previous 24 Hours

Scroll right to see more
 ConditionsComfort  
Time TempWeatherWind HumidityBarometerVisibility
8:50 pm
Fri, Sep 20
48 °FFog.13 mph100%30.21 "Hg0 mi
7:50 pm50 °FFog.14 mph94%30.21 "Hg0 mi
7:20 pm50 °FFog.13 mph100%30.21 "Hg0 mi
6:50 pm50 °FFog.13 mph100%30.21 "Hg0 mi
6:20 pm50 °FFog.13 mph100%30.21 "Hg0 mi
5:50 pm50 °FFog.15 mph100%30.21 "Hg1 mi
5:20 pm52 °FFog.16 mph94%30.21 "Hg0 mi
4:50 pm54 °FPartly sunny.15 mph88%30.21 "HgN/A
4:20 pm54 °FPartly sunny.18 mph88%30.21 "HgN/A
3:50 pm54 °FPartly sunny.21 mph88%30.21 "HgN/A
2:50 pm54 °FPartly sunny.22 mph88%30.21 "HgN/A
2:20 pm54 °FPartly sunny.20 mph88%30.21 "HgN/A
1:50 pm54 °FPartly sunny.20 mph82%30.24 "HgN/A
1:20 pm54 °FPartly sunny.17 mph88%30.24 "HgN/A
12:20 pm54 °FPartly sunny.16 mph82%30.21 "HgN/A
11:50 am54 °FPartly sunny.20 mph82%30.24 "HgN/A
11:20 am54 °FPartly sunny.18 mph82%30.21 "HgN/A
10:50 am54 °FPartly sunny.16 mph82%30.24 "HgN/A
10:20 am54 °FPartly sunny.18 mph82%30.21 "HgN/A
9:50 am54 °FPartly sunny.20 mph88%30.21 "HgN/A
9:20 am52 °FOvercast.21 mph94%30.21 "HgN/A
8:50 am52 °FOvercast.17 mph94%30.21 "HgN/A
7:50 am52 °FOvercast.20 mph94%30.21 "HgN/A
7:20 am52 °FOvercast.16 mph100%30.21 "HgN/A
6:50 am52 °FOvercast.15 mph94%30.21 "HgN/A
5:50 am52 °FFog.22 mph100%30.21 "Hg3 mi
5:20 am52 °FDrizzle. Fog.21 mph100%30.21 "Hg2 mi
4:50 am52 °FDrizzle. Fog.21 mph100%30.21 "Hg2 mi
3:50 am52 °FDrizzle. Fog.21 mph100%30.21 "Hg2 mi
2:50 am52 °FLow clouds.18 mph100%30.21 "HgN/A
1:50 am52 °FMostly cloudy.22 mph100%30.21 "HgN/A
12:50 am52 °FOvercast.22 mph100%30.21 "HgN/A
11:50 pm
Thu, Sep 19
52 °FDrizzle. Fog.24 mph100%N/A2 mi
10:50 pm52 °FDrizzle. Low clouds.23 mph100%30.21 "HgN/A
Weather by CustomWeather, © 2019

See weather overview